Вернуться в каталог

STARLINK-31480

АктивенСвязьVLEO
NORAD 59306·PAYLOAD·🇺🇸 United States

Запущен Mar 24, 2024 с Cape Canaveral Space Force Station

Loading…

Ближайшие Пролёты (ближайшие 24 часа)

TLE

СвежийSource: CelesTrak SupGP

Эпоха: Sep 14, 2026, 22:39 UTC

1 59306C 24056L   26257.94423611  .00026832  00000+0  97180-3 0  2577
2 59306  42.9998 241.7757 0001455 261.6195 319.7284 15.27566526    14

Отслеживайте STARLINK-31480 в реальном времени с AllMySat

Download on the App Store